#timestamp,LO_Frequency,Hit 
1500238815.2,286046998.6,N
1500238835.0,286046999.9,N
1500238836.0,286046999.9,N
1500238855.8,286046999.7,N
1500238875.6,286047002.4,N
1500238895.5,286047000.5,N
1500238915.3,286047001.2,N
1500238935.1,286047000.9,N
1500238955.9,286047000.6,N
1500238975.7,286047000.9,N
1500238995.6,286047001.0,N
1500239015.4,286047002.6,N
1500239035.2,286047002.4,N
1500239055.1,286047002.5,N
1500239056.0,286047002.5,N
1500239075.8,286047000.1,N
1500239095.7,286047000.0,N
1500239115.5,286046999.9,N
1500239135.3,286047002.7,N
1500239155.2,286047000.0,N
1500239175.0,286046999.7,N
1500239175.9,286046999.7,N
1500239195.8,286046999.7,N
1500239215.6,286046999.9,N
1500239235.4,286047000.1,N
1500239255.3,286046999.9,N
1500239275.1,286047002.3,N
1500239295.8,286047001.9,N
1500239315.7,286047001.9,N
1500239335.5,286046999.7,N
1500239355.4,286046999.8,N
1500239375.2,286047002.4,N
1500239395.0,286047002.6,N
1500239395.9,286047002.6,N
1500239415.8,286046999.8,N
1500239435.6,286047002.2,N
1500239455.4,286047002.2,N
1500239475.3,286047002.1,N
1500239495.1,286047001.4,N
1500239515.9,286047003.4,N
1500239535.7,286047002.2,N
1500239555.5,286047002.6,N
1500239575.4,286047002.2,N
1500239595.2,286047002.1,N
1500239615.0,286047002.5,N
1500239616.0,286047002.5,N
1500239635.8,286046999.8,N
1500239655.6,286047001.8,N
1500239675.5,286047004.1,N
1500239695.3,286047003.9,N
1500239715.1,286047001.5,N
1500239735.9,286047003.6,N
1500239755.7,286047004.1,N
1500239775.6,286047004.4,N
1500239795.4,286047003.9,N
1500239815.2,286047003.2,N
1500239835.1,286047003.6,N
1500239836.0,286047003.6,N
1500239855.8,286047004.2,N
1500239875.6,286047003.7,N
1500239895.5,286047003.1,N
1500239915.3,286047005.5,N
1500239935.2,286047003.1,N
1500239955.9,286047003.3,N
1500239975.7,286047003.1,N
1500239995.6,286047005.8,N
1500240015.4,286047003.1,N
1500240035.3,286047004.5,N
1500240055.1,286047005.2,N
1500240056.0,286047005.2,N
1500240075.8,286047005.6,N
1500240095.7,286047005.2,N
1500240115.5,286047005.8,N
1500240135.4,286047003.4,N
1500240155.2,286047003.1,N
1500240175.0,286047003.3,N
1500240175.9,286047003.3,N
1500240195.8,286047003.0,N
1500240215.6,286047003.6,N
1500240235.4,286047003.6,N
1500240255.3,286047003.0,N
1500240275.1,286047003.6,N
1500240295.9,286047002.9,N
1500240315.7,286047004.2,N
1500240335.5,286047003.6,N
1500240355.4,286047005.7,N
1500240375.2,286047004.0,N
1500240395.0,286047004.4,N
1500240396.0,286047004.4,N
1500240415.8,286047001.5,N
1500240435.6,286047003.6,N
1500240455.5,286047004.3,N
1500240475.3,286047003.7,N
1500240495.1,286047004.3,N
1500240515.9,286047004.1,N
1500240535.7,286047003.7,N
1500240555.6,286047003.7,N
1500240575.4,286047003.4,N
1500240595.2,286047003.2,N
1500240615.1,286047001.8,N
1500240616.0,286047001.8,N
1500240635.8,286047001.5,N
1500240655.6,286047001.3,N
1500240675.5,286047004.4,N
1500240695.3,286047001.9,N
1500240715.2,286047003.9,N
1500240735.9,286047004.0,N
1500240755.7,286047001.4,N
1500240775.6,286047003.6,N
1500240795.4,286047003.7,N
1500240815.2,286047003.8,N
1500240835.1,286047004.3,N
1500240836.0,286047004.3,N
1500240855.8,286047003.8,N
1500240875.7,286047004.0,N
1500240895.5,286047003.9,N
1500240915.3,286047004.1,N
1500240935.2,286047006.0,N
1500240955.0,286047005.3,N
1500240955.9,286047005.3,N
1500240975.7,286047003.1,N
1500240995.6,286047003.3,N
1500241015.4,286047005.9,N
1500241035.3,286047002.9,N
1500241055.1,286047005.8,N
1500241075.8,286047005.2,N
1500241095.7,286047006.0,N
1500241115.5,286047006.0,N
1500241135.4,286047005.9,N
1500241155.2,286047005.7,N
1500241175.0,286047005.9,N
1500241175.9,286047005.9,N
1500241195.8,286047005.5,N
1500241215.6,286047005.5,N
1500241235.4,286047005.4,N
1500241255.3,286047005.6,N
1500241275.1,286047003.2,N
1500241295.9,286047003.5,N
1500241315.7,286047005.8,N
1500241335.5,286047005.6,N
1500241355.4,286047005.8,N
1500241375.2,286047005.3,N
1500241395.0,286047007.0,N
1500241395.9,286047007.0,N
1500241415.8,286047007.4,N
1500241435.6,286047005.0,N
1500241455.5,286047005.5,N
1500241475.3,286047005.9,N
1500241495.1,286047004.5,N
1500241515.9,286047005.6,N
1500241535.7,286047005.8,N
1500241555.5,286047005.9,N
1500241575.4,286047003.1,N
1500241595.2,286047005.5,N
1500241615.1,286047005.3,N
1500241616.0,286047005.3,N
1500241635.8,286047005.5,N
1500241655.6,286047003.1,N
1500241675.5,286047005.6,N
1500241695.3,286047003.2,N
1500241715.2,286047005.9,N
1500241735.9,286047004.7,N
1500241755.7,286047005.9,N
1500241775.6,286047002.9,N
1500241795.4,286047005.6,N
1500241815.2,286047005.7,N
1500241835.1,286047005.9,N
1500241836.0,286047005.9,N
1500241855.8,286047004.7,N
1500241875.7,286047007.5,N
1500241895.5,286047007.4,N
1500241915.3,286047007.2,N
1500241935.2,286047007.2,N
1500241955.0,286047007.2,N
1500241955.9,286047007.2,N
1500241975.7,286047007.2,N
1500241995.6,286047006.7,N
1500242015.4,286047005.3,N
1500242035.3,286047004.6,N
1500242055.1,286047005.7,N
1500242056.0,286047005.7,N
1500242075.8,286047005.8,N
1500242095.7,286047007.6,N
1500242115.5,286047011.9,N
1500242135.4,286047003.2,N
1500242155.2,286047006.0,N
1500242175.0,286047003.2,N
1500242176.0,286047003.2,N
1500242195.8,286047003.4,N
1500242215.6,286047002.9,N
1500242235.5,286047003.1,N
1500242255.3,286047003.7,N
1500242275.1,286047002.1,N
1500242295.9,286047001.8,N
1500242315.7,286047004.0,N
1500242335.6,286047002.8,N
1500242355.4,286047002.3,N
1500242375.2,286047002.3,N
1500242395.1,286047002.0,N
1500242396.0,286047002.0,N
